Location: Newark
(49.2191°N, 12.6671°E)
Time: 03:06:35
(UTC+00:00)

A-11 Canister half - Visible Passes

Search period start: 21 January 2020 00:00
Search period end: 31 January 2020 00:00
Orbit: 1525 x 1684 km, 47.3° (Epoch: 20 January)

Date Brightness Start Highest point End Pass type
(mag) Time Alt. Az. Time Alt. Az. Time Alt. Az.
21 Jan 9.3 17:44:02 10° SW 17:52:53 49° SSE 17:57:23 30° E visible
21 Jan 9.1 19:47:51 10° WSW 19:55:42 65° SW 19:55:42 65° SW visible
21 Jan 11.0 21:52:40 10° W 21:54:00 15° W 21:54:00 15° W visible
22 Jan 9.4 17:22:32 10° SW 17:31:18 47° SSE 17:37:04 23° E visible
22 Jan 8.9 19:26:14 10° WSW 19:35:23 77° S 19:35:23 77° S visible
22 Jan 10.7 21:31:03 10° W 21:33:41 22° W 21:33:41 22° W visible
23 Jan 9.5 17:01:01 10° SW 17:09:43 46° SE 17:16:44 17° E visible
23 Jan 8.8 19:04:38 10° WSW 19:14:03 77° S 19:15:03 71° ESE visible
23 Jan 10.3 21:09:25 10° W 21:13:20 29° W 21:13:20 29° W visible
24 Jan 9.6 16:39:31 10° SSW 16:48:09 44° SE 16:56:23 12° E visible
24 Jan 8.9 18:43:02 10° WSW 18:52:25 76° SSE 18:54:41 57° ESE visible
24 Jan 10.0 20:47:48 10° W 20:52:59 38° W 20:52:59 38° W visible
25 Jan 9.6 16:18:02 10° SSW 16:26:34 42° SE 16:35:18 10° ENE visible
25 Jan 8.9 18:21:25 10° WSW 18:30:47 75° SSE 18:34:18 45° E visible
25 Jan 9.6 20:26:11 10° W 20:32:36 49° W 20:32:36 49° W visible
26 Jan 9.0 17:59:49 10° WSW 18:09:09 74° SSE 18:13:55 35° E visible
26 Jan 9.2 20:04:34 10° W 20:12:13 62° WSW 20:12:13 62° WSW visible
26 Jan 11.0 22:09:28 10° WNW 22:10:31 14° W 22:10:31 14° W visible
27 Jan 9.0 17:38:14 10° WSW 17:47:32 73° SSE 17:53:32 26° E visible
27 Jan 8.9 19:42:56 10° W 19:51:49 76° SW 19:51:49 76° SW visible
27 Jan 10.8 21:47:50 10° WNW 21:50:08 19° W 21:50:08 19° W visible
28 Jan 9.1 17:16:38 10° WSW 17:25:55 72° SSE 17:33:08 20° E visible
28 Jan 8.8 19:21:19 10° W 19:30:46 79° S 19:31:26 75° SSE visible
28 Jan 10.5 21:26:12 10° WNW 21:29:43 25° W 21:29:43 25° W visible
29 Jan 9.1 16:55:03 10° WSW 17:04:17 70° SSE 17:12:44 14° E visible
29 Jan 8.9 18:59:42 10° W 19:09:08 79° S 19:11:02 62° ESE visible
29 Jan 10.2 21:04:34 10° WNW 21:09:20 32° W 21:09:20 32° W visible
30 Jan 9.2 16:33:27 10° WSW 16:42:40 69° SSE 16:52:09 10° E visible
30 Jan 8.9 18:38:05 10° W 18:47:30 80° S 18:50:39 49° ESE visible
30 Jan 9.8 20:42:56 10° WNW 20:48:58 40° WSW 20:48:58 40° WSW visible
